When you browse on this site, cookies collect data to enhance your experience and personalize the content and advertising you see.
Visit our Privacy Policy to learn more. By continuing to use the site, you agree to this use of cookies and data.
  • In Czech Republic
  • List of Countries
  • For 7 days
  • Water Temperature
  • Satellite Maps
  • Weather Map
  • Weather Widgets
  • user-avatar
    Login

    Hourly Weather Kindia

    Today, 16 December, Sunday

    Time Temperature Precipitation Wind Pressure Humidity
    00:00 +25°C° 0 mm 2 mps 709 mmHg 20%
    01:00 +24°C° 0 mm 2 mps 709 mmHg 21%
    02:00 +24°C° 0 mm 2 mps 709 mmHg 22%
    03:00 +23°C° 0 mm 2 mps 709 mmHg 22%
    04:00 +23°C° 0 mm 2 mps 708 mmHg 22%
    05:00 +23°C° 0 mm 2 mps 709 mmHg 22%
    06:00 +22°C° 0 mm 1 mps 709 mmHg 21%
    07:00 +23°C° 0 mm 1 mps 709 mmHg 21%
    08:00 +26°C° 0 mm 2 mps 710 mmHg 18%
    09:00 +29°C° 0 mm 2 mps 710 mmHg 14%
    10:00 +32°C° 0 mm 2 mps 711 mmHg 11%
    11:00 +35°C° 0 mm 3 mps 710 mmHg 10%
    12:00 +36°C° 0 mm 3 mps 710 mmHg 9%
    13:00 +36°C° 0 mm 3 mps 710 mmHg 9%
    14:00 +36°C° 0 mm 3 mps 710 mmHg 9%
    15:00 +36°C° 0 mm 3 mps 709 mmHg 10%
    16:00 +36°C° 0 mm 3 mps 709 mmHg 10%
    17:00 +34°C° 0 mm 3 mps 709 mmHg 12%
    18:00 +31°C° 0 mm 3 mps 709 mmHg 14%
    19:00 +29°C° 0 mm 2 mps 709 mmHg 15%
    20:00 +28°C° 0 mm 3 mps 709 mmHg 16%
    21:00 +27°C° 0 mm 3 mps 709 mmHg 16%
    22:00 +26°C° 0 mm 3 mps 710 mmHg 16%
    23:00 +26°C° 0 mm 3 mps 710 mmHg 16%

    Tomorrow, 17 December, Monday

    Time Temperature Precipitation Wind Pressure Humidity
    00:00 +25°C° 0 mm 3 mps 710 mmHg 16%
    01:00 +24°C° 0 mm 3 mps 709 mmHg 17%
    02:00 +24°C° 0 mm 3 mps 709 mmHg 18%
    03:00 +22°C° 0 mm 3 mps 709 mmHg 19%
    04:00 +22°C° 0 mm 3 mps 709 mmHg 20%
    05:00 +21°C° 0 mm 3 mps 709 mmHg 21%
    06:00 +21°C° 0 mm 3 mps 709 mmHg 23%
    07:00 +21°C° 0 mm 3 mps 709 mmHg 25%
    08:00 +24°C° 0 mm 3 mps 710 mmHg 22%
    09:00 +27°C° 0 mm 3 mps 710 mmHg 18%
    10:00 +30°C° 0 mm 3 mps 711 mmHg 15%
    11:00 +31°C° 0 mm 3 mps 710 mmHg 14%
    12:00 +34°C° 0 mm 3 mps 710 mmHg 12%
    13:00 +36°C° 0 mm 3 mps 710 mmHg 10%
    14:00 +36°C° 0 mm 3 mps 709 mmHg 10%
    15:00 +36°C° 0 mm 3 mps 708 mmHg 10%
    16:00 +36°C° 0 mm 3 mps 708 mmHg 10%
    17:00 +34°C° 0 mm 3 mps 708 mmHg 12%
    18:00 +31°C° 0 mm 3 mps 708 mmHg 14%
    19:00 +29°C° 0 mm 3 mps 708 mmHg 16%
    20:00 +28°C° 0 mm 4 mps 709 mmHg 17%
    21:00 +27°C° 0 mm 4 mps 709 mmHg 19%
    22:00 +26°C° 0 mm 4 mps 709 mmHg 20%
    23:00 +25°C° 0 mm 4 mps 709 mmHg 20%

    Day after tomorrow, 18 December, Tuesday

    Time Temperature Precipitation Wind Pressure Humidity
    00:00 +23°C° 0 mm 4 mps 709 mmHg 20%
    01:00 +23°C° 0 mm 4 mps 709 mmHg 20%
    02:00 +22°C° 0 mm 3 mps 709 mmHg 22%
    03:00 +22°C° 0 mm 3 mps 708 mmHg 23%
    04:00 +21°C° 0 mm 3 mps 708 mmHg 25%
    05:00 +21°C° 0 mm 3 mps 708 mmHg 26%
    06:00 +20°C° 0 mm 3 mps 709 mmHg 28%
    07:00 +20°C° 0 mm 2 mps 709 mmHg 29%
    08:00 +24°C° 0 mm 2 mps 710 mmHg 25%
    09:00 +26°C° 0 mm 3 mps 710 mmHg 20%
    10:00 +29°C° 0 mm 3 mps 711 mmHg 16%
    11:00 +31°C° 0 mm 3 mps 710 mmHg 14%
    12:00 +34°C° 0 mm 3 mps 710 mmHg 12%
    13:00 +36°C° 0 mm 3 mps 709 mmHg 10%
    14:00 +36°C° 0 mm 3 mps 708 mmHg 10%
    15:00 +36°C° 0 mm 2 mps 708 mmHg 10%
    16:00 +36°C° 0 mm 2 mps 707 mmHg 9%
    17:00 +34°C° 0 mm 2 mps 707 mmHg 11%
    18:00 +31°C° 0 mm 2 mps 707 mmHg 12%
    19:00 +28°C° 0 mm 2 mps 707 mmHg 14%
    20:00 +27°C° 0 mm 2 mps 708 mmHg 15%
    21:00 +27°C° 0 mm 3 mps 709 mmHg 16%
    22:00 +26°C° 0 mm 3 mps 709 mmHg 17%
    23:00 +25°C° 0 mm 3 mps 709 mmHg 19%

    19 December, Wednesday

    Time Temperature Precipitation Wind Pressure Humidity
    00:00 +24°C° 0 mm 3 mps 709 mmHg 21%
    01:00 +22°C° 0 mm 3 mps 708 mmHg 23%
    02:00 +22°C° 0 mm 3 mps 708 mmHg 24%
    03:00 +21°C° 0 mm 3 mps 708 mmHg 25%
    04:00 +20°C° 0 mm 3 mps 708 mmHg 25%
    05:00 +20°C° 0 mm 3 mps 708 mmHg 27%
    06:00 +20°C° 0 mm 2 mps 708 mmHg 28%
    07:00 +20°C° 0 mm 2 mps 709 mmHg 30%
    08:00 +23°C° 0 mm 2 mps 709 mmHg 25%
    09:00 +26°C° 0 mm 2 mps 710 mmHg 21%
    10:00 +29°C° 0 mm 2 mps 711 mmHg 16%
    11:00 +31°C° 0 mm 2 mps 710 mmHg 14%
    12:00 +34°C° 0 mm 2 mps 710 mmHg 12%
    13:00 +36°C° 0 mm 1 mps 709 mmHg 10%
    14:00 +35°C° 0 mm 1 mps 709 mmHg 10%
    15:00 +35°C° 0 mm 1 mps 708 mmHg 10%
    16:00 +36°C° 0 mm 2 mps 707 mmHg 10%
    17:00 +34°C° 0 mm 2 mps 707 mmHg 11%
    18:00 +30°C° 0 mm 2 mps 708 mmHg 13%
    19:00 +28°C° 0 mm 2 mps 708 mmHg 14%
    20:00 +27°C° 0 mm 2 mps 708 mmHg 16%
    21:00 +26°C° 0 mm 3 mps 709 mmHg 18%
    22:00 +25°C° 0 mm 3 mps 709 mmHg 19%
    23:00 +24°C° 0 mm 3 mps 709 mmHg 21%

    20 December, Thursday

    Time Temperature Precipitation Wind Pressure Humidity
    00:00 +24°C° 0 mm 3 mps 708 mmHg 22%
    01:00 +22°C° 0 mm 3 mps 708 mmHg 23%
    02:00 +21°C° 0 mm 2 mps 708 mmHg 23%
    03:00 +21°C° 0 mm 2 mps 708 mmHg 23%
    04:00 +20°C° 0 mm 2 mps 707 mmHg 23%
    05:00 +20°C° 0 mm 2 mps 708 mmHg 24%
    06:00 +20°C° 0 mm 2 mps 708 mmHg 25%
    07:00 +19°C° 0 mm 2 mps 709 mmHg 27%
    08:00 +23°C° 0 mm 2 mps 709 mmHg 22%
    09:00 +26°C° 0 mm 2 mps 710 mmHg 18%
    10:00 +29°C° 0 mm 2 mps 711 mmHg 13%
    11:00 +32°C° 0 mm 2 mps 710 mmHg 12%
    12:00 +34°C° 0 mm 1 mps 709 mmHg 10%
    13:00 +36°C° 0 mm 1 mps 709 mmHg 8%
    14:00 +36°C° 0 mm 1 mps 708 mmHg 8%
    15:00 +35°C° 0 mm 1 mps 708 mmHg 9%
    16:00 +35°C° 0 mm 1 mps 707 mmHg 9%
    17:00 +34°C° 0 mm 2 mps 707 mmHg 10%
    18:00 +31°C° 0 mm 2 mps 707 mmHg 11%
    19:00 +28°C° 0 mm 2 mps 708 mmHg 13%
    20:00 +27°C° 0 mm 2 mps 708 mmHg 14%
    21:00 +26°C° 0 mm 2 mps 708 mmHg 16%
    22:00 +26°C° 0 mm 3 mps 709 mmHg 17%
    23:00 +25°C° 0 mm 3 mps 708 mmHg 19%

    21 December, Friday

    Time Temperature Precipitation Wind Pressure Humidity
    00:00 +24°C° 0 mm 3 mps 708 mmHg 22%
    01:00 +22°C° 0 mm 3 mps 708 mmHg 24%
    02:00 +21°C° 0 mm 3 mps 708 mmHg 25%
    03:00 +21°C° 0 mm 3 mps 708 mmHg 25%
    04:00 +20°C° 0 mm 3 mps 708 mmHg 25%
    05:00 +20°C° 0 mm 2 mps 708 mmHg 27%
    06:00 +20°C° 0 mm 2 mps 708 mmHg 28%
    07:00 +19°C° 0 mm 2 mps 709 mmHg 30%
    08:00 +23°C° 0 mm 2 mps 709 mmHg 25%
    09:00 +26°C° 0 mm 2 mps 710 mmHg 20%
    10:00 +29°C° 0 mm 2 mps 710 mmHg 15%
    11:00 +31°C° 0 mm 1 mps 710 mmHg 13%
    12:00 +34°C° 0 mm 1 mps 709 mmHg 11%
    13:00 +36°C° 0 mm 1 mps 709 mmHg 9%
    14:00 +36°C° 0 mm 1 mps 708 mmHg 9%
    15:00 +35°C° 0 mm 1 mps 707 mmHg 9%
    16:00 +35°C° 0 mm 1 mps 707 mmHg 9%
    17:00 +34°C° 0 mm 2 mps 707 mmHg 11%
    18:00 +31°C° 0 mm 2 mps 707 mmHg 12%
    19:00 +28°C° 0 mm 2 mps 707 mmHg 14%
    20:00 +27°C° 0 mm 2 mps 708 mmHg 16%
    21:00 +27°C° 0 mm 3 mps 708 mmHg 17%
    22:00 +26°C° 0 mm 3 mps 708 mmHg 19%
    23:00 +25°C° 0 mm 3 mps 708 mmHg 21%
    Show more